�N����,����,�~����,�C��,���x,�C��,����,���ϕ���,�ő�u�ԕ���,�ő厞����,���˗�,�I�_���x,�n�����x,�ő啗���N��,DTYPE
"19/12/19","00:10",0.0,7.2,87.8,1014.5,327.2,1.8,3.7,318.5,0.00,5.4,9.9,"00:00:56",1
"19/12/19","00:20",0.0,6.9,88.0,1014.2,316.5,2.1,2.8,325.5,0.00,5.1,9.8,"00:13:28",1
"19/12/19","00:30",0.0,6.8,88.3,1014.9,308.1,2.3,3.4,308.7,0.00,5.0,9.8,"00:20:40",1
"19/12/19","00:40",0.0,6.9,88.5,1014.5,311.4,2.6,3.9,310.3,0.00,5.2,9.7,"00:36:00",1
"19/12/19","00:50",0.0,7.2,88.6,1014.7,318.0,3.6,5.6,321.9,0.00,5.5,9.6,"00:47:28",1
"19/12/19","01:00",0.0,7.3,88.7,1014.7,324.5,3.4,5.4,303.4,0.00,5.6,9.9,"00:56:24",1
"19/12/19","01:10",0.0,7.3,88.8,1014.2,327.8,3.1,5.1,330.6,0.00,5.6,9.8,"01:05:20",1
"19/12/19","01:20",0.0,7.4,88.7,1014.2,329.9,4.0,5.8,333.9,0.00,5.7,9.9,"01:15:36",1
"19/12/19","01:30",0.0,7.4,88.6,1014.5,329.1,3.7,6.3,325.9,0.00,5.7,9.5,"01:27:28",1
"19/12/19","01:40",0.0,7.4,88.5,1014.5,325.7,3.4,5.2,314.3,0.00,5.7,9.7,"01:32:32",1
"19/12/19","01:50",0.0,7.5,88.5,1014.5,321.8,3.0,4.5,340.1,0.00,5.8,9.8,"01:49:28",1
"19/12/19","02:00",0.0,7.5,88.4,1014.9,325.3,3.1,4.4,320.3,0.00,5.7,9.8,"01:56:24",1
"19/12/19","02:10",0.0,7.5,88.3,1014.9,324.2,3.1,5.1,341.5,0.00,5.7,9.6,"02:01:28",1
"19/12/19","02:20",0.0,7.4,88.3,1014.5,328.9,2.8,4.5,333.2,0.00,5.6,9.6,"02:10:48",1
"19/12/19","02:30",0.0,7.5,88.2,1014.5,321.2,3.5,5.5,331.3,0.00,5.7,9.6,"02:22:32",1
"19/12/19","02:40",0.0,7.5,88.1,1014.7,318.5,3.1,5.2,313.8,0.00,5.7,9.7,"02:35:44",1
"19/12/19","02:50",0.0,7.5,87.9,1014.7,318.7,3.1,4.9,339.0,0.00,5.7,9.6,"02:49:04",1
"19/12/19","03:00",0.0,7.6,87.7,1014.9,324.2,3.5,4.9,331.1,0.00,5.7,9.9,"02:53:04",1
"19/12/19","03:10",0.0,7.5,87.5,1014.5,327.4,2.7,4.0,323.7,0.00,5.6,9.8,"03:08:00",1
"19/12/19","03:20",0.0,7.4,87.4,1014.7,327.7,3.0,4.7,329.7,0.00,5.5,9.7,"03:17:20",1
"19/12/19","03:30",0.0,7.1,87.6,1014.7,326.7,2.6,4.0,336.8,0.00,5.2,9.5,"03:24:24",1
"19/12/19","03:40",0.0,7.2,87.8,1014.7,317.0,2.7,4.5,329.0,0.00,5.4,9.7,"03:37:28",1
"19/12/19","03:50",0.0,7.2,87.9,1014.7,324.3,3.1,4.8,317.0,0.00,5.4,9.8,"03:48:58",1
"19/12/19","04:00",0.0,7.3,87.9,1014.7,326.6,3.1,5.1,322.6,0.00,5.5,9.6,"03:59:20",1
"19/12/19","04:10",0.0,7.2,87.8,1014.5,321.0,3.4,5.4,317.4,0.00,5.4,9.9,"04:09:44",1
"19/12/19","04:20",0.0,7.2,87.8,1014.5,327.4,3.6,5.0,332.7,0.00,5.4,9.7,"04:14:40",1
"19/12/19","04:30",0.0,7.0,87.9,1014.5,324.6,4.1,6.6,327.8,0.00,5.2,9.6,"04:29:38",1
"19/12/19","04:40",0.0,7.0,87.8,1014.5,324.5,4.0,5.7,333.1,0.00,5.2,9.5,"04:35:44",1
"19/12/19","04:50",0.0,6.8,87.8,1014.5,333.6,2.0,3.6,336.7,0.00,5.0,9.6,"04:42:08",1
"19/12/19","05:00",0.0,6.5,88.0,1014.5,333.6,1.6,2.5,339.3,0.00,4.7,9.5,"04:56:32",1
"19/12/19","05:10",0.0,6.2,88.4,1014.2,323.8,2.2,3.3,330.3,0.00,4.5,9.6,"05:04:40",1
"19/12/19","05:20",0.0,6.1,88.9,1014.0,313.2,2.5,3.3,312.3,0.00,4.4,9.4,"05:16:24",1
"19/12/19","05:30",0.0,6.0,89.3,1014.0,293.7,2.1,3.6,321.4,0.00,4.4,9.3,"05:23:20",1
"19/12/19","05:40",0.0,6.0,89.7,1014.0,315.3,1.6,2.8,350.5,0.00,4.5,9.4,"05:37:52",1
"19/12/19","05:50",0.0,5.6,90.0,1013.5,318.8,1.3,2.2,325.6,0.00,4.1,9.5,"05:43:12",1
"19/12/19","06:00",0.0,5.2,90.4,1013.8,230.3,0.5,1.0,268.1,0.00,3.8,9.4,"05:50:08",1
"19/12/19","06:10",0.0,5.0,90.7,1014.0,309.6,1.3,2.1,318.8,0.00,3.6,9.2,"06:05:30",1
"19/12/19","06:20",0.0,4.7,91.1,1014.2,323.7,1.7,2.6,318.6,0.00,3.4,9.3,"06:16:08",1
"19/12/19","06:30",0.0,4.7,91.4,1014.7,317.5,1.3,2.4,315.0,0.00,3.5,9.2,"06:20:32",1
"19/12/19","06:40",0.0,4.5,91.8,1014.2,294.7,0.5,1.2,338.2,0.00,3.3,9.0,"06:31:04",1
"19/12/19","06:50",0.0,4.3,92.0,1014.5,260.3,0.5,1.6,303.3,0.00,3.2,9.1,"06:40:08",1
"19/12/19","07:00",0.0,4.2,92.4,1014.0,272.9,1.0,2.0,320.5,0.00,3.1,8.9,"06:59:46",1
"19/12/19","07:10",0.0,4.1,92.7,1014.0,287.4,1.5,2.4,274.2,0.00,3.1,9.1,"07:05:58",1
"19/12/19","07:20",0.0,3.9,92.8,1014.5,308.4,1.3,2.4,322.8,0.00,2.9,8.8,"07:12:36",1
"19/12/19","07:30",0.0,3.7,93.0,1014.2,302.5,1.5,1.9,306.7,0.00,2.7,9.0,"07:22:08",1
"19/12/19","07:40",0.0,3.5,93.3,1014.2,287.9,1.3,1.7,291.5,0.00,2.6,8.9,"07:37:04",1
"19/12/19","07:50",0.0,3.7,93.5,1014.5,301.5,1.5,2.9,326.7,0.00,2.8,8.8,"07:46:42",1
"19/12/19","08:00",0.0,3.7,93.6,1014.5,297.8,1.2,1.7,313.1,0.00,2.8,8.7,"07:59:38",1
"19/12/19","08:10",0.0,3.8,93.9,1014.5,312.1,1.8,2.8,298.2,0.00,2.9,8.7,"08:05:26",1
"19/12/19","08:20",0.0,4.1,94.0,1014.9,277.6,1.1,1.6,294.1,0.00,3.3,8.7,"08:18:16",1
"19/12/19","08:30",0.0,4.5,94.1,1014.5,278.3,1.1,1.8,258.0,0.01,3.7,8.7,"08:26:40",1
"19/12/19","08:40",0.0,5.1,94.1,1014.9,297.4,1.0,1.8,316.8,0.02,4.3,8.4,"08:37:44",1
"19/12/19","08:50",0.0,5.4,94.2,1014.9,311.4,1.6,2.4,318.6,0.03,4.6,8.6,"08:42:32",1
"19/12/19","09:00",0.0,6.0,94.3,1014.9,314.5,1.5,2.2,317.2,0.04,5.2,8.5,"08:55:44",1
"19/12/19","09:10",0.0,6.5,94.2,1015.2,301.8,0.6,1.6,296.8,0.06,5.7,8.7,"09:01:04",1
"19/12/19","09:20",0.0,6.9,94.1,1014.9,283.7,0.7,1.4,267.8,0.08,6.1,8.7,"09:17:44",1
"19/12/19","09:30",0.0,7.5,93.8,1015.4,230.6,0.7,1.6,236.9,0.11,6.6,8.7,"09:20:02",1
"19/12/19","09:40",0.0,7.8,93.7,1015.6,244.4,0.7,1.3,239.4,0.14,6.9,8.9,"09:30:08",1
"19/12/19","09:50",0.0,8.3,93.4,1016.1,251.0,0.7,1.4,235.8,0.17,7.3,9.1,"09:41:04",1
"19/12/19","10:00",0.0,8.5,93.0,1016.6,307.8,1.2,2.0,314.1,0.18,7.5,9.0,"09:54:08",1
"19/12/19","10:10",0.0,8.2,92.5,1016.1,253.2,1.0,1.8,236.6,0.17,7.1,9.1,"10:04:40",1
"19/12/19","10:20",0.0,8.6,92.0,1016.6,264.2,0.8,1.9,273.1,0.12,7.4,9.2,"10:18:48",1
"19/12/19","10:30",0.0,8.3,91.3,1016.6,275.0,1.0,1.8,279.8,0.06,7.0,9.3,"10:26:24",1
"19/12/19","10:40",0.0,8.3,91.1,1016.4,297.9,1.3,2.6,324.4,0.04,7.0,9.6,"10:38:16",1
"19/12/19","10:50",0.0,8.4,90.7,1016.1,303.7,1.5,2.4,316.1,0.04,7.0,9.6,"10:41:36",1
"19/12/19","11:00",0.0,8.3,90.3,1015.6,283.5,0.7,1.2,279.1,0.05,6.8,9.7,"10:52:40",1
"19/12/19","11:10",0.0,8.4,89.9,1015.6,309.9,0.3,1.0,287.3,0.05,6.9,9.7,"11:02:48",1
"19/12/19","11:20",0.0,8.4,89.6,1015.6,313.6,0.5,1.1,294.9,0.06,6.8,9.8,"11:14:08",1
"19/12/19","11:30",0.0,8.3,89.3,1015.2,339.5,0.5,1.2,302.1,0.05,6.7,10.0,"11:20:32",1
"19/12/19","11:40",0.0,8.3,89.0,1014.7,297.6,0.5,1.2,303.7,0.03,6.6,9.7,"11:32:24",1
"19/12/19","11:50",0.0,8.4,88.8,1014.7,311.9,1.6,2.4,321.8,0.04,6.7,9.8,"11:47:52",1
"19/12/19","12:00",0.0,8.4,88.5,1014.5,315.5,1.2,2.1,321.5,0.05,6.7,9.9,"11:50:48",1
"19/12/19","12:10",0.0,8.6,88.3,1014.5,297.6,1.2,1.9,317.6,0.05,6.8,10.0,"12:08:24",1
"19/12/19","12:20",0.0,8.8,88.0,1014.5,318.7,1.8,2.5,324.8,0.06,7.0,9.9,"12:14:48",1
"19/12/19","12:30",0.0,8.8,87.5,1014.0,327.4,1.5,2.6,323.3,0.06,6.9,9.9,"12:29:04",1
"19/12/19","12:40",0.0,8.8,87.1,1014.0,327.0,1.8,2.6,320.7,0.06,6.8,10.0,"12:32:24",1
"19/12/19","12:50",0.0,8.8,86.6,1014.0,325.2,1.7,2.8,323.5,0.05,6.7,10.0,"12:42:40",1
"19/12/19","13:00",0.0,8.8,86.1,1013.8,314.2,1.7,2.6,320.2,0.04,6.6,10.2,"12:56:16",1
"19/12/19","13:10",0.0,9.0,85.8,1013.5,306.9,1.5,2.0,313.3,0.05,6.8,10.2,"13:05:52",1
"19/12/19","13:20",0.0,9.0,85.2,1013.3,311.4,1.3,2.4,312.2,0.06,6.7,9.9,"13:18:40",1
"19/12/19","13:30",0.0,9.2,84.8,1013.3,311.6,1.3,2.0,318.7,0.07,6.8,10.1,"13:26:24",1
"19/12/19","13:40",0.0,9.3,84.3,1013.3,317.1,1.5,2.2,321.5,0.08,6.8,10.2,"13:31:36",1
"19/12/19","13:50",0.0,9.4,83.8,1013.3,314.7,1.1,1.7,308.4,0.06,6.8,10.3,"13:45:28",1
"19/12/19","14:00",0.0,9.4,83.4,1012.8,319.7,0.7,1.8,309.5,0.04,6.8,10.2,"13:50:56",1
"19/12/19","14:10",0.0,9.2,83.3,1013.0,273.5,0.7,1.2,255.3,0.03,6.6,10.3,"14:01:20",1
"19/12/19","14:20",0.0,9.3,83.1,1012.8,303.8,0.7,1.2,284.8,0.04,6.6,10.2,"14:17:36",1
"19/12/19","14:30",0.0,9.4,83.0,1012.8,283.2,0.6,1.1,293.4,0.03,6.7,10.3,"14:20:40",1
"19/12/19","14:40",0.0,9.4,82.9,1012.6,296.1,0.8,1.6,301.2,0.03,6.7,10.4,"14:39:28",1
"19/12/19","14:50",0.0,9.4,82.8,1012.6,308.7,2.0,2.4,315.7,0.02,6.7,10.3,"14:44:48",1
"19/12/19","15:00",0.0,9.4,82.8,1012.1,302.3,1.6,2.0,312.1,0.03,6.7,10.3,"14:56:56",1
"19/12/19","15:10",0.0,9.4,82.6,1012.1,313.7,2.1,2.6,324.3,0.02,6.6,10.4,"15:05:04",1
"19/12/19","15:20",0.0,9.5,82.5,1011.9,314.7,1.5,2.1,313.2,0.02,6.7,10.4,"15:10:08",1
"19/12/19","15:30",0.0,9.5,82.5,1012.6,291.3,1.3,1.7,313.7,0.02,6.7,10.4,"15:24:56",1
"19/12/19","15:40",0.0,9.5,82.4,1012.8,284.6,1.5,1.8,270.5,0.00,6.7,10.7,"15:35:38",1
"19/12/19","15:50",0.0,9.4,82.5,1012.6,283.1,1.6,2.1,305.5,0.00,6.6,10.4,"15:47:44",1
"19/12/19","16:00",0.0,9.3,82.6,1012.6,302.8,2.0,2.7,313.5,0.00,6.5,10.5,"15:55:04",1
"19/12/19","16:10",0.0,9.3,82.9,1013.0,319.1,2.3,3.2,321.1,0.00,6.6,10.4,"16:03:36",1
"19/12/19","16:20",0.0,9.2,83.3,1012.8,313.7,1.8,2.6,326.5,0.00,6.6,10.3,"16:12:08",1
"19/12/19","16:30",0.0,9.2,83.7,1012.3,304.5,1.7,2.1,309.7,0.00,6.6,10.3,"16:23:12",1
"19/12/19","16:40",0.0,9.2,84.2,1012.3,279.6,1.5,1.9,282.0,0.00,6.7,10.4,"16:32:00",1
"19/12/19","16:50",0.0,9.1,84.6,1012.6,284.3,1.5,2.1,296.0,0.00,6.7,10.4,"16:44:56",1
"19/12/19","17:00",0.0,9.0,85.0,1012.6,265.6,1.5,1.9,258.3,0.00,6.7,10.3,"16:52:40",1
"19/12/19","17:10",0.0,8.9,85.3,1012.8,270.0,1.6,2.2,247.6,0.00,6.6,10.3,"17:05:44",1
"19/12/19","17:20",0.0,8.9,85.7,1012.8,307.6,1.8,2.9,322.7,0.00,6.7,10.4,"17:15:36",1
"19/12/19","17:30",0.0,8.8,86.3,1012.6,317.9,2.0,2.5,321.6,0.00,6.7,10.3,"17:28:56",1
"19/12/19","17:40",0.0,8.6,86.8,1012.8,310.8,1.5,2.2,318.8,0.00,6.6,10.2,"17:30:24",1
"19/12/19","17:50",0.0,8.5,87.2,1013.0,280.6,1.5,2.0,318.9,0.00,6.5,10.3,"17:40:40",1
"19/12/19","18:00",0.0,8.5,87.7,1013.3,277.1,1.6,2.5,273.5,0.00,6.6,10.4,"17:58:56",1
"19/12/19","18:10",0.0,8.4,88.0,1013.5,303.5,1.7,2.8,331.9,0.00,6.6,10.3,"18:09:28",1
"19/12/19","18:20",0.0,8.4,88.3,1013.3,323.2,2.1,3.4,326.3,0.00,6.6,10.1,"18:10:24",1
"19/12/19","18:30",0.0,8.3,88.5,1013.0,317.9,2.0,2.9,325.8,0.00,6.6,10.1,"18:29:52",1
"19/12/19","18:40",0.0,8.3,88.6,1013.3,300.5,2.0,3.1,320.6,0.00,6.6,10.2,"18:36:56",1
"19/12/19","18:50",0.0,8.3,88.7,1013.3,314.3,2.0,2.8,326.4,0.00,6.6,10.3,"18:41:04",1
"19/12/19","19:00",0.0,8.2,88.7,1013.8,291.7,1.3,2.1,315.8,0.00,6.5,10.3,"18:50:24",1
"19/12/19","19:10",0.0,8.1,88.8,1013.8,286.9,1.2,1.7,307.6,0.00,6.4,10.2,"19:00:48",1
"19/12/19","19:20",0.0,8.1,88.8,1013.8,298.2,1.2,1.9,306.5,0.00,6.4,10.1,"19:12:08",1
"19/12/19","19:30",0.0,8.0,88.9,1013.8,308.1,1.5,2.0,323.0,0.00,6.3,10.1,"19:23:44",1
"19/12/19","19:40",0.0,7.9,89.0,1014.0,308.8,1.1,1.7,318.7,0.00,6.2,10.1,"19:39:44",1
"19/12/19","19:50",0.0,7.9,89.1,1013.8,321.2,1.5,1.9,325.6,0.00,6.3,10.0,"19:42:32",1
"19/12/19","20:00",0.0,7.7,89.1,1013.8,290.1,0.8,1.6,322.4,0.00,6.1,10.0,"19:50:08",1
"19/12/19","20:10",0.0,7.7,89.3,1013.5,325.5,1.5,2.2,343.9,0.00,6.1,10.0,"20:06:40",1
"19/12/19","20:20",0.0,7.6,89.5,1013.8,298.7,1.3,1.9,311.0,0.00,6.0,10.0,"20:11:44",1
"19/12/19","20:30",0.0,7.6,89.7,1013.8,281.9,1.3,1.9,281.5,0.00,6.1,10.1,"20:23:20",1
"19/12/19","20:40",0.0,7.7,89.9,1013.8,287.1,1.3,2.0,272.0,0.00,6.2,10.0,"20:37:44",1
"19/12/19","20:50",0.0,7.7,90.1,1014.0,311.3,1.6,2.0,318.8,0.00,6.2,10.0,"20:43:28",1
"19/12/19","21:00",0.0,7.8,90.2,1014.2,327.7,1.3,2.0,320.6,0.00,6.3,9.8,"20:52:24",1
"19/12/19","21:10",0.0,7.6,90.3,1014.2,289.3,1.1,2.0,319.4,0.00,6.2,10.1,"21:00:56",1
"19/12/19","21:20",0.0,7.6,90.5,1014.2,280.3,0.3,1.1,276.5,0.00,6.2,9.7,"21:10:24",1
"19/12/19","21:30",0.0,7.6,90.7,1014.2,316.0,0.5,1.1,298.2,0.00,6.2,9.9,"21:26:16",1
"19/12/19","21:40",0.0,7.7,90.9,1014.0,309.8,1.5,2.1,336.7,0.00,6.3,9.9,"21:38:08",1
"19/12/19","21:50",0.0,7.6,91.1,1013.5,320.5,1.6,2.4,319.1,0.00,6.3,10.0,"21:46:08",1
"19/12/19","22:00",0.0,7.5,91.3,1013.5,281.4,1.1,1.8,252.2,0.00,6.2,9.9,"21:55:20",1
"19/12/19","22:10",0.0,7.5,91.4,1013.8,300.1,1.2,2.1,306.1,0.00,6.2,9.9,"22:01:20",1
"19/12/19","22:20",0.0,7.6,91.6,1014.2,311.6,1.0,1.7,311.7,0.00,6.4,10.1,"22:12:48",1
"19/12/19","22:30",0.0,7.6,91.7,1014.7,291.4,1.2,2.0,319.2,0.00,6.4,9.8,"22:29:36",1
"19/12/19","22:40",0.0,7.6,91.8,1014.7,333.0,1.5,2.6,328.8,0.00,6.4,9.8,"22:31:28",1
"19/12/19","22:50",0.0,7.4,91.9,1014.7,301.2,1.2,1.8,321.3,0.00,6.2,9.7,"22:40:24",1
"19/12/19","23:00",0.0,7.2,92.1,1014.7,294.0,1.6,2.0,308.8,0.00,6.0,9.8,"22:52:08",1
"19/12/19","23:10",0.0,7.1,92.3,1014.2,297.3,1.7,2.4,322.4,0.00,6.0,9.6,"23:04:48",1
"19/12/19","23:20",0.0,7.1,92.4,1014.5,310.8,1.8,2.5,326.6,0.00,6.0,9.7,"23:17:28",1
"19/12/19","23:30",0.0,7.0,92.5,1014.7,312.4,1.3,2.1,332.0,0.00,5.9,9.7,"23:20:16",1
"19/12/19","23:40",0.0,6.9,92.7,1014.9,274.1,1.3,1.7,267.6,0.00,5.8,9.8,"23:39:14",1
"19/12/19","23:50",0.0,6.9,92.8,1014.7,304.3,1.6,2.1,322.6,0.00,5.9,9.6,"23:46:08",1
"19/12/19","24:00",0.0,6.8,92.9,1014.5,301.8,0.8,1.9,316.2,0.00,5.8,9.9,"23:50:48",1
